�������l�o���
Date,Time,MP-1(��Sv/h),MP-2(��Sv/h),MP-3(��Sv/h),MP-4(��Sv/h),MP-5(��Sv/h),MP-6(��Sv/h),MP-7(��Sv/h),MP-8(��Sv/h),����,����(m/s),���J
2024/06/27,00:00,0.503,0.775,0.489,0.965,0.705,0.319,0.552,0.511,�쐼,1.1,��
2024/06/27,00:10,0.504,0.774,0.488,0.966,0.705,0.316,0.552,0.512,-,CALM,��
2024/06/27,00:20,0.504,0.776,0.491,0.965,0.705,0.317,0.553,0.511,�쓌,0.8,��
2024/06/27,00:30,0.504,0.775,0.488,0.965,0.706,0.316,0.553,0.512,��,1.4,��
2024/06/27,00:40,0.503,0.776,0.488,0.965,0.704,0.315,0.553,0.513,��,1.5,��
2024/06/27,00:50,0.505,0.774,0.489,0.965,0.703,0.317,0.552,0.512,�k��,2.3,��
2024/06/27,01:00,0.506,0.776,0.488,0.964,0.705,0.317,0.554,0.511,�k��,2.0,��
2024/06/27,01:10,0.506,0.773,0.489,0.967,0.705,0.314,0.554,0.512,�k�k��,1.9,��
2024/06/27,01:20,0.503,0.775,0.489,0.967,0.707,0.316,0.553,0.512,�k�k��,2.6,��
2024/06/27,01:30,0.504,0.773,0.489,0.966,0.707,0.316,0.554,0.512,�k�k��,3.1,��
2024/06/27,01:40,0.504,0.774,0.488,0.965,0.703,0.317,0.551,0.511,�k�k��,3.0,��
2024/06/27,01:50,0.503,0.772,0.487,0.966,0.705,0.316,0.553,0.512,�k�k��,1.5,��
2024/06/27,02:00,0.504,0.773,0.486,0.966,0.705,0.317,0.552,0.510,�k,1.2,��
2024/06/27,02:10,0.504,0.773,0.487,0.965,0.706,0.316,0.553,0.512,�k�k��,1.9,��
2024/06/27,02:20,0.505,0.773,0.489,0.964,0.706,0.316,0.552,0.511,�k,1.1,��
2024/06/27,02:30,0.504,0.772,0.488,0.965,0.704,0.316,0.552,0.513,�k�k��,0.9,��
2024/06/27,02:40,0.503,0.774,0.488,0.964,0.705,0.315,0.555,0.512,�k��,0.6,��
2024/06/27,02:50,0.504,0.774,0.488,0.965,0.705,0.316,0.552,0.511,���k��,1.5,��
2024/06/27,03:00,0.501,0.774,0.487,0.963,0.705,0.315,0.553,0.511,���k��,2.0,��
2024/06/27,03:10,0.504,0.774,0.487,0.964,0.705,0.317,0.553,0.511,�k��,1.5,��
2024/06/27,03:20,0.503,0.772,0.486,0.963,0.705,0.315,0.552,0.511,�k�k��,1.5,��
2024/06/27,03:30,0.505,0.772,0.486,0.963,0.705,0.316,0.552,0.510,�k�k��,1.2,��
2024/06/27,03:40,0.503,0.771,0.487,0.964,0.704,0.315,0.554,0.511,�k,1.5,��
2024/06/27,03:50,0.503,0.771,0.487,0.964,0.704,0.316,0.554,0.510,�k,0.9,��
2024/06/27,04:00,0.502,0.772,0.486,0.963,0.706,0.316,0.553,0.513,���k��,0.6,��
2024/06/27,04:10,0.503,0.773,0.487,0.967,0.705,0.316,0.555,0.511,�쓌,0.6,��
2024/06/27,04:20,0.504,0.770,0.487,0.964,0.705,0.315,0.552,0.511,��,1.1,��
2024/06/27,04:30,0.504,0.773,0.487,0.965,0.704,0.315,0.552,0.509,�쓌,1.1,��
2024/06/27,04:40,0.502,0.771,0.488,0.963,0.704,0.316,0.553,0.512,��쓌,1.5,��
2024/06/27,04:50,0.504,0.771,0.488,0.964,0.705,0.315,0.555,0.511,��,1.2,��
2024/06/27,05:00,0.502,0.772,0.488,0.965,0.703,0.317,0.554,0.513,��,1.7,��
2024/06/27,05:10,0.503,0.771,0.486,0.965,0.704,0.316,0.554,0.510,��,2.0,��
2024/06/27,05:20,0.504,0.773,0.486,0.965,0.705,0.316,0.554,0.512,��쓌,1.7,��
2024/06/27,05:30,0.503,0.773,0.487,0.963,0.704,0.316,0.555,0.511,��쓌,1.5,��
2024/06/27,05:40,0.503,0.774,0.487,0.964,0.704,0.315,0.556,0.511,��,2.0,��
2024/06/27,05:50,0.503,0.771,0.487,0.964,0.705,0.315,0.554,0.510,��쐼,1.5,��
2024/06/27,06:00,0.504,0.773,0.486,0.963,0.705,0.316,0.556,0.511,��,2.0,��
2024/06/27,06:10,0.504,0.774,0.486,0.966,0.704,0.316,0.557,0.510,��,2.0,��
2024/06/27,06:20,0.503,0.773,0.487,0.965,0.705,0.314,0.555,0.513,��,1.5,��
2024/06/27,06:30,0.502,0.774,0.486,0.965,0.705,0.315,0.556,0.511,��,1.5,��
2024/06/27,06:40,0.504,0.771,0.486,0.963,0.703,0.314,0.556,0.510,��,1.7,��
2024/06/27,06:50,0.502,0.771,0.486,0.966,0.703,0.314,0.555,0.511,���쓌,2.0,��
2024/06/27,07:00,0.502,0.770,0.487,0.966,0.704,0.314,0.555,0.512,�쓌,2.0,��
2024/06/27,07:10,0.502,0.770,0.486,0.965,0.701,0.313,0.554,0.511,�쓌,1.7,��
2024/06/27,07:20,0.501,0.772,0.486,0.963,0.702,0.313,0.554,0.511,���쓌,1.9,��
2024/06/27,07:30,0.502,0.772,0.486,0.963,0.702,0.312,0.554,0.511,���쓌,1.5,��
2024/06/27,07:40,0.501,0.771,0.485,0.966,0.701,0.312,0.553,0.511,���쓌,2.5,��
2024/06/27,07:50,0.501,0.771,0.486,0.964,0.703,0.314,0.554,0.510,�쓌,2.8,��
2024/06/27,08:00,0.503,0.768,0.485,0.966,0.702,0.314,0.552,0.510,�쓌,2.3,��
2024/06/27,08:10,0.501,0.772,0.485,0.964,0.702,0.314,0.552,0.508,���쓌,2.6,��
2024/06/27,08:20,0.503,0.772,0.487,0.963,0.702,0.313,0.552,0.508,���쓌,3.1,��
2024/06/27,08:30,0.504,0.771,0.488,0.966,0.704,0.312,0.554,0.510,���쓌,3.2,��
2024/06/27,08:40,0.502,0.771,0.487,0.966,0.703,0.313,0.551,0.509,���쓌,2.8,��
2024/06/27,08:50,0.501,0.772,0.487,0.966,0.692,0.314,0.553,0.508,�쓌,1.7,��
2024/06/27,09:00,0.503,0.771,0.486,0.964,0.685,0.314,0.552,0.508,�쓌,2.5,��
2024/06/27,09:10,0.503,0.771,0.487,0.962,0.694,0.313,0.552,0.509,�쓌,2.5,��
2024/06/27,09:20,0.503,0.771,0.485,0.964,0.702,0.314,0.552,0.511,�쓌,3.0,��
2024/06/27,09:30,0.504,0.771,0.486,0.965,0.702,0.314,0.553,0.508,�쓌,3.9,��
2024/06/27,09:40,0.502,0.772,0.487,0.965,0.702,0.313,0.553,0.510,��쓌,3.8,��
2024/06/27,09:50,0.503,0.773,0.485,0.964,0.701,0.313,0.554,0.511,��쓌,3.7,��
2024/06/27,10:00,0.503,0.772,0.485,0.965,0.703,0.314,0.553,0.509,��쓌,3.4,��
2024/06/27,10:10,0.504,0.773,0.487,0.966,0.703,0.314,0.554,0.510,�쓌,4.4,��
2024/06/27,10:20,0.504,0.772,0.485,0.966,0.705,0.313,0.552,0.510,�쓌,5.1,��
2024/06/27,10:30,0.505,0.774,0.486,0.965,0.701,0.313,0.552,0.509,��쓌,5.6,��
2024/06/27,10:40,0.504,0.771,0.486,0.965,0.703,0.314,0.554,0.510,��쓌,5.1,��
2024/06/27,10:50,0.504,0.773,0.486,0.966,0.705,0.314,0.555,0.510,��쓌,5.4,��
2024/06/27,11:00,0.503,0.775,0.485,0.965,0.706,0.313,0.553,0.509,��쓌,6.5,��
2024/06/27,11:10,0.504,0.772,0.486,0.964,0.704,0.315,0.553,0.510,��쓌,4.8,��
2024/06/27,11:20,0.504,0.773,0.487,0.964,0.706,0.315,0.553,0.510,��쓌,5.7,��
2024/06/27,11:30,0.504,0.775,0.486,0.962,0.705,0.313,0.553,0.510,��쓌,8.2,��
2024/06/27,11:40,0.503,0.774,0.487,0.962,0.706,0.315,0.552,0.509,��쓌,8.0,��
2024/06/27,11:50,0.504,0.775,0.488,0.963,0.705,0.314,0.552,0.510,��쓌,7.5,��
2024/06/27,12:00,0.504,0.774,0.486,0.963,0.704,0.314,0.552,0.510,��,6.7,��
2024/06/27,12:10,0.505,0.775,0.487,0.965,0.706,0.315,0.550,0.511,��,7.9,��
2024/06/27,12:20,0.506,0.774,0.486,0.963,0.704,0.315,0.552,0.511,��쓌,7.0,��
2024/06/27,12:30,0.504,0.773,0.486,0.962,0.707,0.315,0.551,0.511,��쓌,6.6,��
2024/06/27,12:40,0.505,0.775,0.487,0.965,0.706,0.314,0.550,0.510,��쓌,7.7,��
2024/06/27,12:50,0.503,0.774,0.488,0.964,0.707,0.315,0.552,0.510,��쓌,7.7,��
2024/06/27,13:00,0.504,0.774,0.488,0.966,0.707,0.313,0.551,0.510,��쓌,8.7,��
2024/06/27,13:10,0.505,0.775,0.486,0.963,0.707,0.315,0.551,0.509,��,7.1,��
2024/06/27,13:20,0.506,0.776,0.487,0.964,0.706,0.315,0.551,0.509,��,3.0,��
2024/06/27,13:30,0.505,0.774,0.487,0.965,0.706,0.314,0.551,0.509,��,7.0,��
2024/06/27,13:40,0.503,0.773,0.488,0.966,0.707,0.315,0.550,0.510,��,7.1,��
2024/06/27,13:50,0.507,0.774,0.487,0.963,0.705,0.315,0.549,0.510,��쓌,5.9,��
2024/06/27,14:00,0.505,0.775,0.488,0.964,0.707,0.315,0.552,0.511,��쓌,5.5,��
2024/06/27,14:10,0.504,0.775,0.488,0.966,0.706,0.314,0.552,0.511,��쓌,7.1,��
2024/06/27,14:20,0.504,0.774,0.487,0.965,0.708,0.316,0.552,0.509,��쓌,6.1,��
2024/06/27,14:30,0.505,0.775,0.487,0.966,0.707,0.315,0.552,0.510,��쓌,8.3,��
2024/06/27,14:40,0.506,0.775,0.486,0.966,0.707,0.315,0.551,0.511,��쓌,8.6,��
2024/06/27,14:50,0.504,0.771,0.489,0.964,0.707,0.314,0.551,0.510,��쓌,8.6,��
2024/06/27,15:00,0.505,0.775,0.487,0.966,0.707,0.316,0.551,0.510,��쓌,9.0,��
2024/06/27,15:10,0.505,0.775,0.486,0.967,0.706,0.315,0.551,0.511,��쓌,7.9,��
2024/06/27,15:20,0.504,0.775,0.489,0.967,0.707,0.314,0.552,0.510,��쓌,8.1,��
2024/06/27,15:30,0.505,0.775,0.487,0.965,0.708,0.316,0.550,0.510,��쓌,8.6,��
2024/06/27,15:40,0.505,0.774,0.487,0.966,0.707,0.316,0.551,0.510,��쓌,8.2,��
2024/06/27,15:50,0.505,0.775,0.488,0.968,0.707,0.316,0.552,0.512,��쓌,7.8,��
2024/06/27,16:00,0.506,0.776,0.488,0.967,0.706,0.315,0.551,0.510,��쓌,8.2,��
2024/06/27,16:10,0.506,0.774,0.488,0.967,0.709,0.315,0.552,0.510,��쓌,8.7,��
2024/06/27,16:20,0.504,0.777,0.487,0.965,0.708,0.316,0.551,0.511,��쓌,6.9,��
2024/06/27,16:30,0.506,0.774,0.489,0.967,0.710,0.316,0.552,0.512,��쓌,6.9,��
2024/06/27,16:40,0.505,0.775,0.487,0.967,0.708,0.315,0.553,0.511,��쓌,6.0,��
2024/06/27,16:50,0.506,0.776,0.489,0.966,0.706,0.315,0.551,0.511,��쓌,6.8,��
2024/06/27,17:00,0.505,0.777,0.487,0.968,0.708,0.316,0.551,0.510,��쓌,9.5,��
2024/06/27,17:10,0.505,0.776,0.487,0.969,0.708,0.316,0.551,0.509,��,8.2,��
2024/06/27,17:20,0.505,0.776,0.487,0.970,0.708,0.315,0.551,0.512,��,7.6,��
2024/06/27,17:30,0.506,0.776,0.486,0.968,0.708,0.316,0.550,0.512,��,8.6,��
2024/06/27,17:40,0.504,0.776,0.489,0.969,0.706,0.315,0.552,0.513,��쓌,8.5,��
2024/06/27,17:50,0.505,0.777,0.487,0.968,0.707,0.315,0.553,0.511,��쓌,8.0,��
2024/06/27,18:00,0.504,0.777,0.487,0.968,0.707,0.314,0.554,0.513,��,7.7,��
2024/06/27,18:10,0.505,0.775,0.487,0.970,0.709,0.316,0.552,0.513,��,5.8,��
2024/06/27,18:20,0.503,0.777,0.487,0.969,0.707,0.315,0.553,0.512,��,6.3,��
2024/06/27,18:30,0.506,0.776,0.489,0.972,0.708,0.316,0.552,0.514,��,6.8,��
2024/06/27,18:40,0.504,0.776,0.488,0.969,0.707,0.315,0.552,0.515,��,7.3,��
2024/06/27,18:50,0.504,0.778,0.487,0.969,0.710,0.315,0.553,0.513,��,6.9,��
2024/06/27,19:00,0.504,0.778,0.490,0.970,0.709,0.315,0.553,0.513,��,6.5,��
2024/06/27,19:10,0.504,0.777,0.489,0.971,0.710,0.316,0.551,0.513,��,7.0,��
2024/06/27,19:20,0.505,0.778,0.489,0.971,0.710,0.316,0.551,0.512,��,6.0,��
2024/06/27,19:30,0.506,0.779,0.490,0.969,0.709,0.316,0.552,0.513,��,5.6,��
2024/06/27,19:40,0.504,0.779,0.489,0.971,0.710,0.317,0.552,0.512,��,6.2,��
2024/06/27,19:50,0.506,0.778,0.490,0.971,0.711,0.316,0.552,0.512,��,5.6,��
2024/06/27,20:00,0.508,0.780,0.489,0.970,0.710,0.317,0.552,0.511,��,5.5,��
2024/06/27,20:10,0.507,0.777,0.492,0.974,0.712,0.317,0.553,0.513,��,6.4,��
2024/06/27,20:20,0.507,0.779,0.489,0.971,0.711,0.317,0.552,0.513,��,6.6,��
2024/06/27,20:30,0.508,0.777,0.490,0.971,0.712,0.315,0.553,0.511,��,7.5,��
2024/06/27,20:40,0.507,0.778,0.490,0.972,0.712,0.316,0.553,0.513,��,6.9,��
2024/06/27,20:50,0.506,0.778,0.490,0.969,0.711,0.316,0.553,0.512,��,6.8,��
2024/06/27,21:00,0.507,0.778,0.490,0.968,0.710,0.318,0.553,0.514,��,6.5,��
2024/06/27,21:10,0.507,0.780,0.491,0.971,0.712,0.316,0.552,0.512,��,6.5,��
2024/06/27,21:20,0.508,0.781,0.490,0.968,0.710,0.316,0.555,0.513,��,5.5,��
2024/06/27,21:30,0.505,0.780,0.491,0.971,0.711,0.317,0.553,0.513,��,5.3,��
2024/06/27,21:40,0.507,0.778,0.489,0.969,0.710,0.316,0.552,0.513,��,6.1,��
2024/06/27,21:50,0.507,0.778,0.491,0.970,0.711,0.315,0.554,0.512,��,6.4,��
2024/06/27,22:00,0.507,0.781,0.490,0.972,0.710,0.318,0.553,0.513,��,5.9,��
2024/06/27,22:10,0.506,0.777,0.490,0.970,0.711,0.317,0.555,0.513,��,5.9,��
2024/06/27,22:20,0.507,0.777,0.490,0.971,0.711,0.316,0.552,0.512,��,5.9,��
2024/06/27,22:30,0.507,0.778,0.490,0.972,0.712,0.316,0.554,0.512,��,6.0,��
2024/06/27,22:40,0.507,0.779,0.489,0.970,0.711,0.316,0.554,0.513,��,5.6,��
2024/06/27,22:50,0.509,0.776,0.490,0.971,0.712,0.318,0.554,0.513,��,5.2,��
2024/06/27,23:00,0.507,0.780,0.489,0.969,0.712,0.318,0.553,0.514,��,4.8,��
2024/06/27,23:10,0.507,0.778,0.489,0.970,0.709,0.317,0.553,0.512,��,4.7,��
2024/06/27,23:20,0.507,0.779,0.490,0.970,0.710,0.316,0.555,0.513,��쓌,4.6,��
2024/06/27,23:30,0.508,0.777,0.491,0.970,0.709,0.316,0.553,0.512,��,5.0,��
2024/06/27,23:40,0.506,0.780,0.491,0.973,0.711,0.317,0.553,0.513,��,4.5,��
2024/06/27,23:50,0.506,0.778,0.491,0.970,0.711,0.318,0.555,0.512,��,4.9,��
